THOR ABLESTAR DEB, 3752

Orbit data source: Space-Track

THOR ABLESTAR DEB, 3752 is space debris in LEO originally from a launch on Thu, 29 Jun 1961 UTC launched from the Air Force Eastern Test Range (AFETR). Debris objects in space refer to the collection of defunct objects orbiting the Earth. Examples of debris include non-operational satellites, rocket bodies, and fragments generated from explosions, collisions, or faulty payload assembly.

Loading next visibility...
Identifier
3752, 1961-015JE
Orbit
LEO
Country
Flag of USUS
Related business
Manufacturer
Unknown
Mission
Spacecraft
Bus & Motor
Unknown
Mass
Unknown
Launch date (UTC)
1961-06-29 (65 years ago)
Launch vehicle
Unknown
Launch site
Air Force Eastern Test Range (AFETR)
Object type
Payload
Rocket body
Debris
Shape & HBR
Unknown shape, 0.1 m
Radar Cross Section
Medium (>0.1 m² and <1 m²)

Expand to show TLE details & history
Last TLE update: 2 days ago

TLE from 2 days ago
0 THOR ABLESTAR DEB
1 03752U 61015JE  26255.07217763  .00000484  00000-0  74006-3 0  9999
2 03752  67.6274 281.1315 0205545 172.2262 219.1731 13.51204608816992
Epoch: 2026-09-12T01:43Z
TLE epoch observation values (Epoch: 2026-09-12T01:43:56.147Z)
Latitude
27.53713°
Longitude
-83.60978°
Altitude
1,190.294 km
Speed
7.203 km/s
True Right ascension
19h 33m 50s
True Declination
27° 24' 16"
Sunlit
Object was in daylight at epoch
Visualization orbit readout
Latitude
Unknown
Longitude
Unknown
Altitude
Unknown
Speed
Unknown
Apparent Right ascension
Unknown
Apparent Declination
Unknown
Sunlit
N/A
Visualization observer readout
Local Sidereal Time
07:22:04
Azimuth
Unknown
Elevation
Unknown
Doppler factor
Unknown
Orbital elements
Apogee altitude
1,219.175 km
Perigee altitude
913.148 km
Semi-major axis
7,444.299 km
Eccentricity
0.02055
Inclination
67.6274°
RAAN
281.1315°
Arg. of periapsis
172.2262°
True anomaly
217.71453°
Mean anomaly
219.1731°
Eccentric anomaly
218.44092°
Mean motion
3.37915 °/min
Orbital period
106.54 mins
BSTAR
0.00074006
Loading maneuver chart data...
Computing Atmospheric mass density...

Documentation

Showing up to 5 results
|